Вернуться в каталог

STARLINK-1212

АктивенСвязьVLEO
NORAD 45223·PAYLOAD·🇺🇸 United States

Запущен Feb 17, 2020 с Cape Canaveral Space Force Station

Loading…

Ближайшие Пролёты (ближайшие 24 часа)

TLE

СвежийSource: CelesTrak SupGP

Эпоха: Sep 14, 2026, 21:12 UTC

1 45223C 20012AX  26257.88381944  .00074662  00000+0  33537-3 0  2573
2 45223  53.0346 136.9493 0004596 118.4415 305.6986 15.83348365    16

Отслеживайте STARLINK-1212 в реальном времени с AllMySat

Download on the App Store